Showing default

DSAT, 42794

Orbit data source: Space-Track

DSAT, 42794 is a payload satellite owned by D-ORBIT (IT) in SSO that was launched on Fri, 23 Jun 2017 UTC via a PSLV-XL launch vehicle from the Sirharikota (SRI). Payload-class satellites include a variety of spacecraft equipped with specific instruments for various scientific and technological missions. These include communications satellites like Starlink; space stations such as the ISS; scientific satellites like the Hubble; Earth observation satellites from companies like Planet Labs, Umbra, and HawkEye 360; GPS; miniature CubeSats for education and research; and military/defense satellites.

Loading next visibility...
Identifier
42794, 2017-036AF
Orbit
SSO
Country
Flag of ITIT
Related business
Manufacturer
D-ORBIT
Mission
Non-operational Commercial Technology
Bus & Motor
CUBESAT 3U, Unknown motor
Mass
4.5 kg wet, 4.2 kg dry
Launch date (UTC)
2017-06-23 (9 years ago)
Launch vehicle
PSLV-XL
Launch site
Sirharikota (SRI)
Object type
Payload
Rocket body
Debris
Shape & HBR
Box, 0.2 m
Radar Cross Section
0.035 m², Medium (>0.1 m² and < 1m²)

Expand to show TLE details & history
Last TLE update: 23 hours ago

TLE from 23 hours ago
0 DSAT
1 42794U 17036AF  26208.39231264  .00009183  00000-0  42248-3 0  9995
2 42794  97.5580 187.2160 0081492  23.6586 336.8361 15.17577143496955
Epoch: 2026-07-27T09:24Z
TLE epoch observation values (Epoch: 2026-07-27T09:24:55.812Z)
Latitude
0.00002°
Longitude
100.9069°
Altitude
464.677 km
Speed
7.663 km/s
True Right ascension
12h 28m 51s
True Declination
0° 00' 00"
Sunlit
Object was in daylight at epoch
Visualization orbit readout
Latitude
Unknown
Longitude
Unknown
Altitude
Unknown
Speed
Unknown
Apparent Right ascension
Unknown
Apparent Declination
Unknown
Sunlit
N/A
Visualization observer readout
Local Sidereal Time
22:15:50
Azimuth
Unknown
Elevation
Unknown
Doppler factor
Unknown
Orbital elements
Apogee altitude
566.275 km
Perigee altitude
454.007 km
Semi-major axis
6,888.278 km
Eccentricity
0.00815
Inclination
97.558°
RAAN
187.216°
Arg. of periapsis
23.6586°
True anomaly
336.4653°
Mean anomaly
336.8361°
Eccentric anomaly
336.65105°
Mean motion
3.79645 °/min
Orbital period
94.83 mins
BSTAR
0.00042248
Loading maneuver chart data...
Computing Atmospheric mass density...

Documentation

Showing up to 5 results
|